Flag for U.S.A. Weather past 2 weeks in Amarillo, Texas, U.S.A.

Now
86 °F

Sunny.


Feels Like: 85 °F
Forecast: 67 / 86 °F
Wind: 10 mph from Southeast

Location: Amarillo International Airport

Current Time: Jul 3, 2015 at 3:33:13 PM

Latest Report: Jul 3, 2015 at 2:53 PM


Visibility: 10 mi

Pressure: 29.91 "Hg (26.37 "Hg at 1117m altitude)

Humidity: 37%

Dew point: 57 °F

Location of AmarilloLocation

Historic Weather in Amarillo — Graph

°F

Amarillo temperature yesterday

Maximum temperature yesterday: 88 °F (at 5:53 PM)
Minimum temperature yesterday: 68 °F (at 10:53 PM)
Average temperature yesterday: 77 °F

Past Weeks' High & Low Weather Summary

 TemperatureHumidityPressure
High93 °F (Jun 28, 3:53 PM)93% (Jun 30, 6:53 AM)30.12 "Hg (Jun 30, 6:53 AM)
Low60 °F (Jun 30, 6:53 AM)26% (Jun 28, 4:53 PM)29.78 "Hg (Jul 1, 6:53 PM)
Average77 °F57%29.93 "Hg
* Reported Jun 18 1:53 PM — Jul 3 1:53 PM, Amarillo, Weather by CustomWeather, © 2015

Note: Actual official high and low records may vary slightly from our data, if they occured in-between our weather recording intervals... More about our weather records

Advertising

Amarillo weather history for previous 24 hours

 ConditionsComfort  
Time TempWeatherWind HumidityBarometerVisibility
1:53 PM
Fri, Jul 3
84 °FSunny.No wind45%29.93 "Hg10 mi
12:53 PM85 °FSunny.8 mph48%29.94 "Hg10 mi
11:53 AM82 °FSunny.8 mph55%29.95 "Hg10 mi
10:53 AM78 °FSunny.12 mph62%29.96 "Hg10 mi
9:53 AM75 °FSunny.10 mph66%29.95 "Hg10 mi
8:53 AM71 °FSunny.12 mph76%29.95 "Hg10 mi
7:53 AM67 °FSunny.9 mph87%29.94 "Hg10 mi
6:53 AM66 °FClear.7 mph90%29.93 "Hg10 mi
5:53 AM67 °FClear.6 mph87%29.90 "Hg10 mi
4:53 AM67 °FPassing clouds.7 mph85%29.88 "Hg10 mi
3:53 AM66 °FClear.5 mph90%29.89 "Hg10 mi
2:53 AM66 °FThundershowers. Partly cloudy.5 mph87%29.91 "Hg10 mi
1:53 AM66 °FOvercast.7 mph84%29.92 "Hg10 mi
1:01 AM67 °FThunderstorms. Passing clouds.5 mph79%30.10 "Hg10 mi
11:53 PM
Thu, Jul 2
68 °FPassing clouds.9 mph73%29.93 "Hg10 mi
10:53 PM68 °FPassing clouds.15 mph73%29.90 "Hg10 mi
9:53 PM77 °FSunny.9 mph64%29.85 "Hg10 mi
8:53 PM81 °FPassing clouds.10 mph56%29.86 "Hg10 mi
7:53 PM84 °FSunny.10 mph48%29.83 "Hg10 mi
6:53 PM86 °FSunny.12 mph42%29.82 "Hg10 mi
5:53 PM88 °FSunny.6 mph39%29.84 "Hg10 mi
4:53 PM86 °FSunny.6 mph42%29.86 "Hg10 mi
3:53 PM85 °FSunny.3 mph45%29.87 "Hg10 mi
Weather by CustomWeather, © 2015

See weather overviewHow to use our weather pages